Location: Tr�vern
(48.0333°N, 4.6000°W)
Time: 08:24:57
(UTC+00:00)

Abrixas rocket - Pass Details

Date: 14 July 2020
Orbit: 339 x 347 km, 48.4° (Epoch: 04 August)

Event Time Altitude Azimuth Distance (km) Brightness Sun altitude
Exits shadow 03:04:25 - 280° (W) 1,652 5.0 -11.7°
Reaches altitude 10° 03:05:19 10° 276° (W) 1,286 4.4 -11.6°
Maximum altitude 03:08:06 47° 201° (SSW) 457 2.0 -11.3°
Drops below altitude 10° 03:10:52 10° 125° (SE) 1,280 4.8 -11.0°
Sets 03:12:53 0° 120° (ESE) 2,116 5.9 -10.8°
